Regional Weather Roundup
Issued by NWS New Orleans/Baton Rouge, LA

Home | Current Version | Previous Version | Graphics & Text | Print | Product List | Glossary On
Versions: 1 2 3 4 5 6 7 8 9 10 11 12 13 14 15 16 17 18 19 20 21 22 23 24 25 26 27 28 29 30 31 32 33 34 35 36 37 38 39 40 41 42 43 44 45 46 47 48 49 50
948
ASUS44 KLIX 310407
RWRLIX
NEW ORLEANS REGIONAL WEATHER ROUNDUP
NATIONAL WEATHER SERVICE NEW ORLEANS LA
1100 PM CDT MON MAR 30 2015

NOTE: "FAIR" INDICATES FEW OR NO CLOUDS BELOW 12,000 FEET WITH NO
      SIGNIFICANT WEATHER AND/OR OBSTRUCTIONS TO VISIBILITY.
      SKY/WX - SKY CONDITION AND SIGNIFICANT WEATHER.
      TMP - AIR TEMPERATURE.     DP    - DEWPOINT TEMPERATURE.
      RH  - RELATIVE HUMIDITY.   PRES  - PRESSURE.
      HI  - HEAT INDEX.          WCI   - WIND CHILL INDEX.

*  THESE STATIONS ARE NOT NWS OR FAA STATIONS AND ARE NOT UNDER
   NWS QUALITY CONTROL.

LAZ038-040-048-061>063-065>067-069-310500-
SOUTHEAST LOUISIANA

CITY           SKY/WX    TMP DP  RH WIND       PRES   REMARKS
N.O. AUDUBON     N/A     67  67 100 MISG        N/A
N.O. INTL ARPT CLEAR     68  61  78 SW7       30.17S
N.O. LAKEFRONT CLEAR     73  63  70 SW10      30.17S
SLIDELL        CLEAR     71  63  75 SW6       30.15S
BATON ROUGE    CLEAR     68  61  78 SW9       30.16R
BOOTHVILLE     CLEAR     71  67  87 SW7       30.18S
BELLE CHASSE   PTCLDY    65  62  90 SW3       30.17S
BOGALUSA*        N/A     69  60  74 W5        30.16S
GALLIANO*      CLEAR     69  66  90 CALM      30.18S
NEW ROADS*       N/A     66  59  77 S7        30.15S
GONZALES*        N/A     65  64  96 CALM      30.16S
HAMMOND*       CLEAR     70  59  68 SW3       30.17S
HOUMA*         CLEAR     62  61  97 CALM      30.17S
PORT FOURCHON* CLEAR     72  66  83 SW5       30.21S

$$

MSZ070-080>082-310500-
SOUTHERN MISSISSIPPI

CITY           SKY/WX    TMP DP  RH WIND       PRES   REMARKS
MCCOMB         CLEAR     66  59  78 SW5       30.14S
GULFPORT       CLEAR     70  64  81 SW5       30.15R
BILOXI         CLEAR     70  66  88 SW8       30.15R
PASCAGOULA     CLEAR     69  64  84 SW5       30.16R

$$

COASTAL OBSERVATIONS
LAKE AND NEARSHORE STATIONS

STATION/POSITION TIME  TEMP    WIND        PRES    WAVE
                       AIR SEA DIR/SP/G            HT/PER
                 (UTC) (F)     (DEG/KT/KT) (MB)    (FT/S)
PASCAGOULA       0300   71     220/ 13/ 16 1020.6
WAVELAND YACHT   0300   71 68  240/  8/ 10 1020.9
GRAND ISLE       0300   71 71  220/  5/  7 1021.6
SOUTHWEST PASS   0300   67 55  200/  5/  6 1022.4
NEW CANAL        0300   72     230/  6/  8 1021.9
SHELL BEACH      0300   72 70  230/ 10/ 12 1021.4

OFFSHORE STATIONS

STATION/POSITION TIME  TEMP    WIND        PRES    WAVE
                       AIR SEA DIR/SP/G            HT/PER
                 (UTC) (F)     (DEG/KT/KT) (MB)    (FT/S)
64 S DAUPHIN ISL 0350   71 71  210/ 16/ 17 1022.1    3/ 7

$$




USA.gov is the U.S. government's official web portal to all federal, state and local government web resources and services.